Spencer, IA

6:50 AM CDT on September 20, 2017 (GMT -0500)
Spencer Municipal

Weather History for KSPW - March, 2014

Change the Weather History Date:

Friday, March 21, 2014

  Actual Average Record
Temperature  
Mean Temperature 38 °F -  
Max Temperature 51 °F 43 °F 70 °F (2009)
Min Temperature 24 °F 25 °F 7 °F (1974)
Degree Days  
Heating Degree Days 27    
Moisture  
Dew Point 27 °F    
Average Humidity 69    
Maximum Humidity 82    
Minimum Humidity 56    
Precipitation  
Precipitation 0.00 in - - ()
Sea Level Pressure  
Sea Level Pressure 29.95 in    
Wind  
Wind Speed 19 mph (NW)    
Max Wind Speed 31 mph    
Max Gust Speed 39 mph    
Visibility 10 miles    
Events      
Averages and records for this station are not official NWS values.
T = Trace of Precipitation, MM = Missing Value Source: NWS Daily Summary

Daily Weather History Graph

Daily Weather History Graph

Search for Another Location

Airport or City:

Trip Planner

Search our weather history database for the weather conditions in past years. The results will help you decide how hot, cold, wet, or windy it might be!

Date:

Astronomy

Mar. 21, 2014 Rise Set
Actual Time 7:22 AM CDT 7:34 PM CDT
Civil Twilight 6:53 AM CDT 8:02 PM CDT
Nautical Twilight 6:20 AM CDT 8:36 PM CDT
Astronomical Twilight 5:46 AM CDT 9:10 PM CDT
Moon 12:01 AM CDT (3/21) 10:07 AM CDT (3/21)
Length of Visible Light 13h 08m
Length of Day
12h 12m
Waning Gibbous, 75% of the Moon is Illuminated
Mar 21
Waning Gibbous
Mar 23
Last Quarter
Mar 30
New
Apr 7
First Quarter
Apr 15
Full

Hourly Weather History & Observations

Time (CDT) Temp. Windchill Dew Point Humidity Pressure Visibility Wind Dir Wind Speed Gust Speed Precip Events Conditions
12:53 AM 37.0 °F 27.4 °F 28.0 °F 70% 29.84 in 10.0 mi SSE 17.3 mph - N/A   Clear
1:53 AM 35.1 °F 24.5 °F 28.0 °F 76% 29.82 in 10.0 mi SSE 18.4 mph - N/A   Clear
2:53 AM 35.1 °F 25.2 °F 27.0 °F 72% 29.81 in 10.0 mi SSE 16.1 mph - N/A   Clear
3:53 AM 36.0 °F 25.6 °F 28.0 °F 73% 29.77 in 10.0 mi SSE 18.4 mph 25.3 mph N/A   Clear
4:53 AM 36.0 °F 27.1 °F 28.0 °F 73% 29.75 in 10.0 mi SSE 13.8 mph - N/A   Clear
5:46 AM 37.0 °F 27.0 °F 28.9 °F 73% 29.80 in 10.0 mi WSW 18.4 mph 29.9 mph N/A   Clear
5:53 AM 37.0 °F 27.7 °F 28.9 °F 73% 29.82 in 10.0 mi West 16.1 mph - N/A   Clear
6:53 AM 35.1 °F 27.9 °F 28.9 °F 78% 29.79 in 10.0 mi South 9.2 mph - N/A   Clear
7:53 AM 34.0 °F 26.0 °F 28.9 °F 82% 29.80 in 10.0 mi SW 10.4 mph - N/A   Clear
8:53 AM 37.9 °F 29.6 °F 28.9 °F 70% 29.81 in 10.0 mi West 13.8 mph - N/A   Clear
9:53 AM 45.0 °F 37.6 °F 34.0 °F 65% 29.82 in 10.0 mi WNW 17.3 mph 26.5 mph N/A   Clear
10:53 AM 46.9 °F - 35.1 °F 63% 29.84 in 10.0 mi WNW 21.9 mph - N/A   Clear
11:53 AM 48.9 °F - 34.0 °F 56% 29.85 in 10.0 mi WNW 23.0 mph 29.9 mph N/A   Clear
12:53 PM 50.0 °F - 35.1 °F 57% 29.86 in 10.0 mi NW 21.9 mph 33.4 mph N/A   Clear
1:53 PM 46.9 °F - 36.0 °F 66% 29.88 in 10.0 mi NW 21.9 mph 33.4 mph N/A   Mostly Cloudy
2:09 PM 46.9 °F - 35.1 °F 63% 29.87 in 10.0 mi NW 26.5 mph 38.0 mph N/A   Mostly Cloudy
2:53 PM 44.1 °F 35.2 °F 34.0 °F 68% 29.91 in 10.0 mi NW 23.0 mph 38.0 mph N/A   Overcast
3:53 PM 39.9 °F 28.4 °F 28.9 °F 65% 29.97 in 10.0 mi NNW 29.9 mph 39.1 mph N/A   Overcast
4:53 PM 39.0 °F 27.0 °F 28.0 °F 65% 30.01 in 10.0 mi NNW 31.1 mph 36.8 mph N/A   Overcast
5:53 PM 39.0 °F 28.3 °F 26.1 °F 60% 30.05 in 10.0 mi NNW 24.2 mph 38.0 mph N/A   Overcast
6:08 PM 39.0 °F 28.3 °F 26.1 °F 60% 30.02 in 10.0 mi NNW 24.2 mph 33.4 mph N/A   Mostly Cloudy
6:53 PM 34.0 °F 21.5 °F 24.1 °F 67% 30.09 in 10.0 mi North 24.2 mph 36.8 mph N/A   Clear
7:53 PM 30.9 °F 16.7 °F 23.0 °F 72% 30.16 in 10.0 mi NNW 27.6 mph 35.7 mph N/A   Scattered Clouds
8:29 PM 30.0 °F 16.6 °F 23.0 °F 75% 30.13 in 10.0 mi NNW 23.0 mph 33.4 mph N/A   Mostly Cloudy
8:53 PM 28.9 °F 13.5 °F 21.0 °F 72% 30.20 in 10.0 mi NNW 29.9 mph 35.7 mph N/A   Overcast
9:53 PM 28.0 °F 13.9 °F 19.9 °F 72% 30.22 in 10.0 mi NNW 23.0 mph - N/A   Overcast
10:26 PM 27.0 °F 12.5 °F 18.0 °F 69% 30.19 in 10.0 mi NNW 23.0 mph 29.9 mph N/A   Scattered Clouds
10:53 PM 26.1 °F 11.6 °F 17.1 °F 69% 30.23 in 10.0 mi NNW 21.9 mph 34.5 mph N/A   Clear
11:53 PM 24.1 °F 7.7 °F 14.0 °F 65% 30.25 in 10.0 mi NNW 26.5 mph 33.4 mph N/A   Clear